contact:dominique.lefevre@mio.osupytheas.fr, maurice.libes@osupytheas.fr, didier.mallarino@osupytheas.fr
Project:EMSO http://www.emso-fr.org/EMSO-France
Depth: 2436.0 m
Title:EMSO Ligure Ouest : Data MII capteur MICROCAT
DateTime_Computer,Latitude,Longitude,Temperature,Conductivity,Pressure,DateTime_Instrument
DateTime_Computer,Latitude,Longitude,degC,S m-1,dbar,DateTime_Instrument
2023-12-09T00:00:44Z,42.805,6.029,13.3056,4.60181,2470.73,2023-12-09T02:03:13Z
2023-12-09T00:03:47Z,42.805,6.029,13.3072,4.60175,2470.73,2023-12-09T02:06:16Z
2023-12-09T00:06:50Z,42.805,6.029,13.3073,4.60167,2470.73,2023-12-09T02:09:19Z
2023-12-09T00:09:53Z,42.805,6.029,13.3082,4.60183,2470.693,2023-12-09T02:12:22Z
2023-12-09T00:12:56Z,42.805,6.029,13.3068,4.60165,2470.777,2023-12-09T02:15:25Z
2023-12-09T00:15:59Z,42.805,6.029,13.3070,4.60207,2470.73,2023-12-09T02:18:28Z
2023-12-09T00:19:02Z,42.805,6.029,13.3073,4.60215,2470.754,2023-12-09T02:21:31Z
2023-12-09T00:22:05Z,42.805,6.029,13.3093,4.60212,2470.73,2023-12-09T02:24:34Z
2023-12-09T00:25:08Z,42.805,6.029,13.3070,4.60200,2470.717,2023-12-09T02:27:38Z
2023-12-09T00:28:11Z,42.805,6.029,13.3082,4.60190,2470.707,2023-12-09T02:30:41Z
2023-12-09T00:31:15Z,42.805,6.029,13.3088,4.60178,2470.717,2023-12-09T02:33:44Z
2023-12-09T00:34:18Z,42.805,6.029,13.3078,4.60173,2470.717,2023-12-09T02:36:47Z
2023-12-09T00:37:21Z,42.805,6.029,13.3054,4.60156,2470.754,2023-12-09T02:39:50Z
2023-12-09T00:40:24Z,42.805,6.029,13.3059,4.60163,2470.754,2023-12-09T02:42:53Z
2023-12-09T00:43:27Z,42.805,6.029,13.3056,4.60146,2470.74,2023-12-09T02:45:56Z
2023-12-09T00:46:30Z,42.805,6.029,13.3073,4.60174,2470.754,2023-12-09T02:48:59Z
2023-12-09T00:49:33Z,42.805,6.029,13.3093,4.60172,2470.73,2023-12-09T02:52:02Z
2023-12-09T00:52:36Z,42.805,6.029,13.3078,4.60196,2470.717,2023-12-09T02:55:05Z
2023-12-09T00:55:39Z,42.805,6.029,13.3073,4.60198,2470.777,2023-12-09T02:58:08Z
2023-12-09T00:58:42Z,42.805,6.029,13.3078,4.60183,2470.754,2023-12-09T03:01:11Z
2023-12-09T01:01:45Z,42.805,6.029,13.3068,4.60169,2470.717,2023-12-09T03:04:14Z
2023-12-09T01:04:48Z,42.805,6.029,13.3076,4.60175,2470.74,2023-12-09T03:07:18Z
2023-12-09T01:07:51Z,42.805,6.029,13.3078,4.60214,2470.74,2023-12-09T03:10:21Z
2023-12-09T01:10:54Z,42.805,6.029,13.3070,4.60173,2470.74,2023-12-09T03:13:24Z
2023-12-09T01:13:58Z,42.805,6.029,13.3058,4.60152,2470.787,2023-12-09T03:16:27Z
2023-12-09T01:17:01Z,42.805,6.029,13.3064,4.60195,2470.763,2023-12-09T03:19:30Z
2023-12-09T01:20:04Z,42.805,6.029,13.3083,4.60180,2470.74,2023-12-09T03:22:33Z
2023-12-09T01:23:07Z,42.805,6.029,13.3076,4.60194,2470.763,2023-12-09T03:25:36Z
2023-12-09T01:26:10Z,42.805,6.029,13.3075,4.60210,2470.74,2023-12-09T03:28:39Z
2023-12-09T01:29:13Z,42.805,6.029,13.3072,4.60170,2470.754,2023-12-09T03:31:42Z
2023-12-09T01:32:16Z,42.805,6.029,13.3078,4.60197,2470.763,2023-12-09T03:34:45Z
2023-12-09T01:35:19Z,42.805,6.029,13.3060,4.60219,2470.717,2023-12-09T03:37:48Z
2023-12-09T01:38:22Z,42.805,6.029,13.3063,4.60216,2470.74,2023-12-09T03:40:51Z
2023-12-09T01:41:25Z,42.805,6.029,13.3072,4.60211,2470.763,2023-12-09T03:43:54Z
2023-12-09T01:44:28Z,42.805,6.029,13.3081,4.60185,2470.787,2023-12-09T03:46:58Z
2023-12-09T01:47:31Z,42.805,6.029,13.3067,4.60200,2470.787,2023-12-09T03:50:01Z
2023-12-09T01:50:34Z,42.805,6.029,13.3063,4.60189,2470.847,2023-12-09T03:53:04Z
2023-12-09T01:53:38Z,42.805,6.029,13.3061,4.60165,2470.763,2023-12-09T03:56:07Z
2023-12-09T01:56:41Z,42.805,6.029,13.3050,4.60175,2470.8,2023-12-09T03:59:10Z
2023-12-09T01:59:44Z,42.805,6.029,13.3061,4.60168,2470.8,2023-12-09T04:02:13Z
2023-12-09T02:02:47Z,42.805,6.029,13.3075,4.60192,2470.81,2023-12-09T04:05:16Z
2023-12-09T02:05:50Z,42.805,6.029,13.3084,4.60156,2470.8,2023-12-09T04:08:19Z
2023-12-09T02:08:53Z,42.805,6.029,13.3076,4.60178,2470.8,2023-12-09T04:11:22Z
2023-12-09T02:11:56Z,42.805,6.029,13.3066,4.60157,2470.8,2023-12-09T04:14:25Z
2023-12-09T02:14:59Z,42.805,6.029,13.3070,4.60198,2470.763,2023-12-09T04:17:28Z
2023-12-09T02:18:02Z,42.805,6.029,13.3050,4.60183,2470.824,2023-12-09T04:20:31Z
2023-12-09T02:21:05Z,42.805,6.029,13.3062,4.60203,2470.833,2023-12-09T04:23:34Z
2023-12-09T02:24:08Z,42.805,6.029,13.3061,4.60163,2470.824,2023-12-09T04:26:38Z
2023-12-09T02:27:11Z,42.805,6.029,13.3073,4.60198,2470.787,2023-12-09T04:29:41Z
2023-12-09T02:30:14Z,42.805,6.029,13.3053,4.60154,2470.824,2023-12-09T04:32:44Z
2023-12-09T02:33:18Z,42.805,6.029,13.3071,4.60188,2470.833,2023-12-09T04:35:47Z
2023-12-09T02:36:21Z,42.805,6.029,13.3075,4.60192,2470.847,2023-12-09T04:38:50Z
2023-12-09T02:39:24Z,42.805,6.029,13.3060,4.60211,2470.857,2023-12-09T04:41:53Z
2023-12-09T02:42:27Z,42.805,6.029,13.3046,4.60193,2470.824,2023-12-09T04:44:56Z
2023-12-09T02:45:30Z,42.805,6.029,13.3049,4.60183,2470.833,2023-12-09T04:47:59Z
2023-12-09T02:48:33Z,42.805,6.029,13.3043,4.60152,2470.8,2023-12-09T04:51:02Z
2023-12-09T02:51:36Z,42.805,6.029,13.3050,4.60137,2470.81,2023-12-09T04:54:05Z
2023-12-09T02:54:39Z,42.805,6.029,13.3066,4.60175,2470.833,2023-12-09T04:57:08Z
2023-12-09T02:57:42Z,42.805,6.029,13.3063,4.60179,2470.82,2023-12-09T05:00:11Z
2023-12-09T03:00:45Z,42.805,6.029,13.3069,4.60189,2470.8,2023-12-09T05:03:14Z
2023-12-09T03:03:48Z,42.805,6.029,13.3072,4.60182,2470.833,2023-12-09T05:06:18Z
2023-12-09T03:06:51Z,42.805,6.029,13.3064,4.60183,2470.824,2023-12-09T05:09:21Z
2023-12-09T03:09:54Z,42.805,6.029,13.3058,4.60176,2470.8,2023-12-09T05:12:24Z
2023-12-09T03:12:58Z,42.805,6.029,13.3066,4.60185,2470.833,2023-12-09T05:15:27Z
2023-12-09T03:16:01Z,42.805,6.029,13.3076,4.60193,2470.8,2023-12-09T05:18:30Z
2023-12-09T03:19:04Z,42.805,6.029,13.3061,4.60190,2470.847,2023-12-09T05:21:33Z
2023-12-09T03:22:07Z,42.805,6.029,13.3063,4.60173,2470.81,2023-12-09T05:24:36Z
2023-12-09T03:25:10Z,42.805,6.029,13.3073,4.60177,2470.81,2023-12-09T05:27:39Z
2023-12-09T03:28:13Z,42.805,6.029,13.3054,4.60175,2470.8,2023-12-09T05:30:42Z
2023-12-09T03:31:16Z,42.805,6.029,13.3055,4.60180,2470.847,2023-12-09T05:33:45Z
2023-12-09T03:34:19Z,42.805,6.029,13.3058,4.60202,2470.833,2023-12-09T05:36:48Z
2023-12-09T03:37:22Z,42.805,6.029,13.3051,4.60178,2470.847,2023-12-09T05:39:51Z
2023-12-09T03:40:25Z,42.805,6.029,13.3051,4.60199,2470.871,2023-12-09T05:42:54Z
2023-12-09T03:43:28Z,42.805,6.029,13.3065,4.60181,2470.833,2023-12-09T05:45:58Z
2023-12-09T03:46:31Z,42.805,6.029,13.3066,4.60183,2470.847,2023-12-09T05:49:01Z
2023-12-09T03:49:34Z,42.805,6.029,13.3054,4.60198,2470.833,2023-12-09T05:52:04Z
2023-12-09T03:52:37Z,42.805,6.029,13.3052,4.60209,2470.833,2023-12-09T05:55:07Z
2023-12-09T03:55:41Z,42.805,6.029,13.3073,4.60190,2470.847,2023-12-09T05:58:10Z
2023-12-09T03:58:44Z,42.805,6.029,13.3058,4.60210,2470.857,2023-12-09T06:01:13Z
2023-12-09T04:01:47Z,42.805,6.029,13.3073,4.60186,2470.833,2023-12-09T06:04:16Z
2023-12-09T04:04:50Z,42.805,6.029,13.3078,4.60167,2470.81,2023-12-09T06:07:19Z
2023-12-09T04:07:53Z,42.805,6.029,13.3061,4.60198,2470.857,2023-12-09T06:10:22Z
2023-12-09T04:10:56Z,42.805,6.029,13.3067,4.60197,2470.833,2023-12-09T06:13:25Z
2023-12-09T04:13:59Z,42.805,6.029,13.3055,4.60180,2470.857,2023-12-09T06:16:28Z
2023-12-09T04:17:02Z,42.805,6.029,13.3065,4.60173,2470.833,2023-12-09T06:19:31Z
2023-12-09T04:20:05Z,42.805,6.029,13.3051,4.60182,2470.857,2023-12-09T06:22:34Z
2023-12-09T04:23:08Z,42.805,6.029,13.3051,4.60178,2470.833,2023-12-09T06:25:38Z
2023-12-09T04:26:11Z,42.805,6.029,13.3055,4.60183,2470.833,2023-12-09T06:28:41Z
2023-12-09T04:29:14Z,42.805,6.029,13.3055,4.60178,2470.833,2023-12-09T06:31:44Z
2023-12-09T04:32:18Z,42.805,6.029,13.3056,4.60193,2470.857,2023-12-09T06:34:47Z
2023-12-09T04:35:21Z,42.805,6.029,13.3064,4.60208,2470.857,2023-12-09T06:37:50Z
2023-12-09T04:38:24Z,42.805,6.029,13.3054,4.60208,2470.894,2023-12-09T06:40:53Z
2023-12-09T04:41:27Z,42.805,6.029,13.3063,4.60203,2470.833,2023-12-09T06:43:56Z
2023-12-09T04:44:30Z,42.805,6.029,13.3058,4.60191,2470.81,2023-12-09T06:46:59Z
2023-12-09T04:47:33Z,42.805,6.029,13.3070,4.60188,2470.833,2023-12-09T06:50:02Z
2023-12-09T04:50:36Z,42.805,6.029,13.3051,4.60162,2470.857,2023-12-09T06:53:05Z
2023-12-09T04:53:39Z,42.805,6.029,13.3074,4.60185,2470.88,2023-12-09T06:56:08Z
2023-12-09T04:56:42Z,42.805,6.029,13.3055,4.60180,2470.88,2023-12-09T06:59:11Z
2023-12-09T04:59:45Z,42.805,6.029,13.3045,4.60171,2470.894,2023-12-09T07:02:14Z
2023-12-09T05:02:48Z,42.805,6.029,13.3062,4.60179,2470.857,2023-12-09T07:05:18Z
2023-12-09T05:05:51Z,42.805,6.029,13.3051,4.60174,2470.857,2023-12-09T07:08:21Z
2023-12-09T05:08:54Z,42.805,6.029,13.3052,4.60180,2470.847,2023-12-09T07:11:24Z
2023-12-09T05:11:57Z,42.805,6.029,13.3049,4.60181,2470.857,2023-12-09T07:14:27Z
2023-12-09T05:15:01Z,42.805,6.029,13.3056,4.60145,2470.88,2023-12-09T07:17:30Z
2023-12-09T05:18:04Z,42.805,6.029,13.3058,4.60190,2470.894,2023-12-09T07:20:33Z
2023-12-09T05:21:07Z,42.805,6.029,13.3081,4.60175,2470.894,2023-12-09T07:23:36Z
2023-12-09T05:24:10Z,42.805,6.029,13.3067,4.60184,2470.833,2023-12-09T07:26:39Z
2023-12-09T05:27:13Z,42.805,6.029,13.3059,4.60170,2470.857,2023-12-09T07:29:42Z
2023-12-09T05:30:16Z,42.805,6.029,13.3048,4.60176,2470.866,2023-12-09T07:32:46Z
2023-12-09T05:33:19Z,42.805,6.029,13.3052,4.60178,2470.88,2023-12-09T07:35:49Z
2023-12-09T05:36:22Z,42.805,6.029,13.3049,4.60161,2470.847,2023-12-09T07:38:52Z
2023-12-09T05:39:26Z,42.805,6.029,13.3058,4.60178,2470.894,2023-12-09T07:41:55Z
2023-12-09T05:42:29Z,42.805,6.029,13.3049,4.60166,2470.857,2023-12-09T07:44:58Z
2023-12-09T05:45:32Z,42.805,6.029,13.3050,4.60154,2470.857,2023-12-09T07:48:01Z
2023-12-09T05:48:35Z,42.805,6.029,13.3049,4.60170,2470.847,2023-12-09T07:51:04Z
2023-12-09T05:51:38Z,42.805,6.029,13.3054,4.60172,2470.833,2023-12-09T07:54:07Z
2023-12-09T05:54:41Z,42.805,6.029,13.3050,4.60167,2470.857,2023-12-09T07:57:10Z
2023-12-09T05:57:44Z,42.805,6.029,13.3050,4.60173,2470.833,2023-12-09T08:00:13Z
2023-12-09T06:00:47Z,42.805,6.029,13.3051,4.60175,2470.847,2023-12-09T08:03:16Z
2023-12-09T06:03:50Z,42.805,6.029,13.3048,4.60166,2470.833,2023-12-09T08:06:19Z
2023-12-09T06:06:53Z,42.805,6.029,13.3061,4.60173,2470.847,2023-12-09T08:09:22Z
2023-12-09T06:09:56Z,42.805,6.029,13.3050,4.60144,2470.857,2023-12-09T08:12:25Z
2023-12-09T06:12:59Z,42.805,6.029,13.3048,4.60168,2470.857,2023-12-09T08:15:29Z
2023-12-09T06:16:02Z,42.805,6.029,13.3050,4.60167,2470.847,2023-12-09T08:18:32Z
2023-12-09T06:19:05Z,42.805,6.029,13.3051,4.60157,2470.871,2023-12-09T08:21:35Z
2023-12-09T06:22:09Z,42.805,6.029,13.3046,4.60155,2470.871,2023-12-09T08:24:38Z
2023-12-09T06:25:12Z,42.805,6.029,13.3043,4.60146,2470.833,2023-12-09T08:27:41Z
2023-12-09T06:28:15Z,42.805,6.029,13.3048,4.60154,2470.871,2023-12-09T08:30:44Z
2023-12-09T06:31:18Z,42.805,6.029,13.3058,4.60164,2470.871,2023-12-09T08:33:47Z
2023-12-09T06:34:21Z,42.805,6.029,13.3046,4.60137,2470.857,2023-12-09T08:36:50Z
2023-12-09T06:37:24Z,42.805,6.029,13.3054,4.60159,2470.843,2023-12-09T08:39:53Z
2023-12-09T06:40:27Z,42.805,6.029,13.3048,4.60169,2470.833,2023-12-09T08:42:56Z
2023-12-09T06:43:30Z,42.805,6.029,13.3050,4.60157,2470.847,2023-12-09T08:45:59Z
2023-12-09T06:46:33Z,42.805,6.029,13.3048,4.60167,2470.847,2023-12-09T08:49:02Z
2023-12-09T06:49:36Z,42.805,6.029,13.3053,4.60160,2470.81,2023-12-09T08:52:05Z
2023-12-09T06:52:39Z,42.805,6.029,13.3055,4.60156,2470.81,2023-12-09T08:55:09Z
2023-12-09T06:55:42Z,42.805,6.029,13.3046,4.60150,2470.847,2023-12-09T08:58:12Z
2023-12-09T06:58:45Z,42.805,6.029,13.3046,4.60157,2470.857,2023-12-09T09:01:15Z
2023-12-09T07:01:49Z,42.805,6.029,13.3051,4.60161,2470.847,2023-12-09T09:04:18Z
2023-12-09T07:04:52Z,42.805,6.029,13.3042,4.60152,2470.833,2023-12-09T09:07:21Z
2023-12-09T07:07:55Z,42.805,6.029,13.3048,4.60157,2470.81,2023-12-09T09:10:24Z
2023-12-09T07:10:58Z,42.805,6.029,13.3043,4.60150,2470.81,2023-12-09T09:13:27Z
2023-12-09T07:14:01Z,42.805,6.029,13.3051,4.60170,2470.847,2023-12-09T09:16:30Z
2023-12-09T07:17:04Z,42.805,6.029,13.3042,4.60156,2470.81,2023-12-09T09:19:33Z
2023-12-09T07:20:07Z,42.805,6.029,13.3050,4.60150,2470.871,2023-12-09T09:22:36Z
2023-12-09T07:23:10Z,42.805,6.029,13.3050,4.60152,2470.81,2023-12-09T09:25:39Z
2023-12-09T07:26:13Z,42.805,6.029,13.3063,4.60144,2470.81,2023-12-09T09:28:42Z
2023-12-09T07:29:16Z,42.805,6.029,13.3043,4.60145,2470.847,2023-12-09T09:31:46Z
2023-12-09T07:32:20Z,42.805,6.029,13.3056,4.60146,2470.81,2023-12-09T09:34:49Z
2023-12-09T07:35:23Z,42.805,6.029,13.3046,4.60160,2470.787,2023-12-09T09:37:52Z
2023-12-09T07:38:26Z,42.805,6.029,13.3047,4.60140,2470.787,2023-12-09T09:40:55Z
2023-12-09T07:41:29Z,42.805,6.029,13.3043,4.60147,2470.857,2023-12-09T09:43:58Z
2023-12-09T07:44:32Z,42.805,6.029,13.3045,4.60144,2470.833,2023-12-09T09:47:01Z
2023-12-09T07:47:35Z,42.805,6.029,13.3042,4.60140,2470.847,2023-12-09T09:50:04Z
2023-12-09T07:50:38Z,42.805,6.029,13.3046,4.60154,2470.787,2023-12-09T09:53:07Z
2023-12-09T07:53:41Z,42.805,6.029,13.3056,4.60138,2470.81,2023-12-09T09:56:10Z
2023-12-09T07:56:44Z,42.805,6.029,13.3043,4.60148,2470.81,2023-12-09T09:59:14Z
2023-12-09T07:59:47Z,42.805,6.029,13.3049,4.60141,2470.81,2023-12-09T10:02:17Z
2023-12-09T08:02:50Z,42.805,6.029,13.3047,4.60144,2470.787,2023-12-09T10:05:20Z
2023-12-09T08:05:54Z,42.805,6.029,13.3045,4.60137,2470.847,2023-12-09T10:08:23Z
2023-12-09T08:08:57Z,42.805,6.029,13.3044,4.60134,2470.833,2023-12-09T10:11:26Z
2023-12-09T08:12:00Z,42.805,6.029,13.3048,4.60149,2470.833,2023-12-09T10:14:29Z
2023-12-09T08:15:03Z,42.805,6.029,13.3043,4.60141,2470.833,2023-12-09T10:17:32Z
2023-12-09T08:18:06Z,42.805,6.029,13.3048,4.60132,2470.81,2023-12-09T10:20:35Z
2023-12-09T08:21:09Z,42.805,6.029,13.3039,4.60128,2470.8,2023-12-09T10:23:38Z
2023-12-09T08:24:12Z,42.805,6.029,13.3049,4.60139,2470.81,2023-12-09T10:26:41Z
2023-12-09T08:27:15Z,42.805,6.029,13.3045,4.60142,2470.833,2023-12-09T10:29:44Z
2023-12-09T08:30:18Z,42.805,6.029,13.3046,4.60133,2470.847,2023-12-09T10:32:47Z
2023-12-09T08:33:21Z,42.805,6.029,13.3046,4.60129,2470.81,2023-12-09T10:35:51Z
2023-12-09T08:36:24Z,42.805,6.029,13.3046,4.60139,2470.833,2023-12-09T10:38:54Z
2023-12-09T08:39:27Z,42.805,6.029,13.3045,4.60133,2470.847,2023-12-09T10:41:57Z
2023-12-09T08:42:31Z,42.805,6.029,13.3052,4.60150,2470.833,2023-12-09T10:45:00Z
2023-12-09T08:45:34Z,42.805,6.029,13.3048,4.60147,2470.81,2023-12-09T10:48:03Z
2023-12-09T08:48:37Z,42.805,6.029,13.3046,4.60147,2470.833,2023-12-09T10:51:06Z
2023-12-09T08:51:40Z,42.805,6.029,13.3047,4.60142,2470.81,2023-12-09T10:54:09Z
2023-12-09T08:54:43Z,42.805,6.029,13.3044,4.60140,2470.824,2023-12-09T10:57:12Z
2023-12-09T08:57:46Z,42.805,6.029,13.3048,4.60150,2470.787,2023-12-09T11:00:15Z
2023-12-09T09:00:49Z,42.805,6.029,13.3047,4.60147,2470.824,2023-12-09T11:03:18Z
2023-12-09T09:03:52Z,42.805,6.029,13.3054,4.60147,2470.81,2023-12-09T11:06:21Z
2023-12-09T09:06:55Z,42.805,6.029,13.3042,4.60144,2470.796,2023-12-09T11:09:24Z
2023-12-09T09:09:58Z,42.805,6.029,13.3046,4.60150,2470.81,2023-12-09T11:12:27Z
2023-12-09T09:13:01Z,42.805,6.029,13.3048,4.60141,2470.81,2023-12-09T11:15:31Z
2023-12-09T09:16:04Z,42.805,6.029,13.3056,4.60137,2470.787,2023-12-09T11:18:34Z
2023-12-09T09:19:07Z,42.805,6.029,13.3049,4.60140,2470.824,2023-12-09T11:21:37Z
2023-12-09T09:22:11Z,42.805,6.029,13.3046,4.60143,2470.787,2023-12-09T11:24:40Z
2023-12-09T09:25:14Z,42.805,6.029,13.3041,4.60135,2470.81,2023-12-09T11:27:43Z
2023-12-09T09:28:17Z,42.805,6.029,13.3044,4.60140,2470.787,2023-12-09T11:30:46Z
2023-12-09T09:31:20Z,42.805,6.029,13.3043,4.60135,2470.81,2023-12-09T11:33:49Z
2023-12-09T09:34:23Z,42.805,6.029,13.3042,4.60144,2470.796,2023-12-09T11:36:52Z
2023-12-09T09:37:26Z,42.805,6.029,13.3042,4.60145,2470.796,2023-12-09T11:39:55Z
2023-12-09T09:40:29Z,42.805,6.029,13.3045,4.60144,2470.787,2023-12-09T11:42:58Z
2023-12-09T09:43:32Z,42.805,6.029,13.3048,4.60135,2470.81,2023-12-09T11:46:02Z
2023-12-09T09:46:35Z,42.805,6.029,13.3044,4.60138,2470.81,2023-12-09T11:49:05Z
2023-12-09T09:49:38Z,42.805,6.029,13.3047,4.60140,2470.787,2023-12-09T11:52:08Z
2023-12-09T09:52:42Z,42.805,6.029,13.3046,4.60136,2470.787,2023-12-09T11:55:11Z
2023-12-09T09:55:45Z,42.805,6.029,13.3046,4.60142,2470.787,2023-12-09T11:58:14Z
2023-12-09T09:58:48Z,42.805,6.029,13.3047,4.60144,2470.81,2023-12-09T12:01:17Z
2023-12-09T10:01:51Z,42.805,6.029,13.3048,4.60132,2470.8,2023-12-09T12:04:20Z
2023-12-09T10:04:54Z,42.805,6.029,13.3048,4.60144,2470.787,2023-12-09T12:07:23Z
2023-12-09T10:07:57Z,42.805,6.029,13.3051,4.60137,2470.763,2023-12-09T12:10:26Z
2023-12-09T10:11:00Z,42.805,6.029,13.3048,4.60135,2470.787,2023-12-09T12:13:29Z
2023-12-09T10:14:03Z,42.805,6.029,13.3046,4.60138,2470.787,2023-12-09T12:16:32Z
2023-12-09T10:17:06Z,42.805,6.029,13.3049,4.60133,2470.787,2023-12-09T12:19:35Z
2023-12-09T10:20:09Z,42.805,6.029,13.3048,4.60132,2470.787,2023-12-09T12:22:39Z
2023-12-09T10:23:12Z,42.805,6.029,13.3054,4.60149,2470.787,2023-12-09T12:25:42Z
2023-12-09T10:26:15Z,42.805,6.029,13.3046,4.60150,2470.787,2023-12-09T12:28:45Z
2023-12-09T10:29:19Z,42.805,6.029,13.3053,4.60141,2470.787,2023-12-09T12:31:48Z
2023-12-09T10:32:22Z,42.805,6.029,13.3050,4.60144,2470.763,2023-12-09T12:34:51Z
2023-12-09T10:35:25Z,42.805,6.029,13.3047,4.60141,2470.763,2023-12-09T12:37:54Z
2023-12-09T10:38:28Z,42.805,6.029,13.3054,4.60161,2470.81,2023-12-09T12:40:57Z
2023-12-09T10:41:31Z,42.805,6.029,13.3046,4.60139,2470.763,2023-12-09T12:44:00Z
2023-12-09T10:44:34Z,42.805,6.029,13.3050,4.60140,2470.763,2023-12-09T12:47:03Z
2023-12-09T10:47:37Z,42.805,6.029,13.3051,4.60139,2470.824,2023-12-09T12:50:06Z
2023-12-09T10:50:40Z,42.805,6.029,13.3051,4.60140,2470.787,2023-12-09T12:53:09Z
2023-12-09T10:53:43Z,42.805,6.029,13.3057,4.60140,2470.824,2023-12-09T12:56:12Z
2023-12-09T10:56:46Z,42.805,6.029,13.3048,4.60140,2470.8,2023-12-09T12:59:15Z
2023-12-09T10:59:49Z,42.805,6.029,13.3045,4.60144,2470.763,2023-12-09T13:02:19Z
2023-12-09T11:02:52Z,42.805,6.029,13.3056,4.60141,2470.763,2023-12-09T13:05:22Z
2023-12-09T11:05:55Z,42.805,6.029,13.3051,4.60138,2470.787,2023-12-09T13:08:25Z
2023-12-09T11:08:59Z,42.805,6.029,13.3048,4.60142,2470.8,2023-12-09T13:11:28Z
2023-12-09T11:12:02Z,42.805,6.029,13.3052,4.60152,2470.74,2023-12-09T13:14:31Z
2023-12-09T11:15:05Z,42.805,6.029,13.3046,4.60133,2470.763,2023-12-09T13:17:34Z
2023-12-09T11:18:08Z,42.805,6.029,13.3048,4.60135,2470.787,2023-12-09T13:20:37Z
2023-12-09T11:21:11Z,42.805,6.029,13.3049,4.60143,2470.74,2023-12-09T13:23:40Z
2023-12-09T11:24:14Z,42.805,6.029,13.3054,4.60141,2470.763,2023-12-09T13:26:43Z
2023-12-09T11:27:17Z,42.805,6.029,13.3045,4.60137,2470.8,2023-12-09T13:29:46Z
2023-12-09T11:30:19Z,42.805,6.029,13.3049,4.60140,2470.8,2023-12-09T13:32:48Z
2023-12-09T11:33:22Z,42.805,6.029,13.3050,4.60139,2470.8,2023-12-09T13:35:51Z
2023-12-09T11:36:25Z,42.805,6.029,13.3048,4.60142,2470.74,2023-12-09T13:38:55Z
2023-12-09T11:39:28Z,42.805,6.029,13.3058,4.60152,2470.787,2023-12-09T13:41:58Z
2023-12-09T11:42:31Z,42.805,6.029,13.3050,4.60147,2470.777,2023-12-09T13:45:01Z
2023-12-09T11:45:34Z,42.805,6.029,13.3048,4.60135,2470.763,2023-12-09T13:48:04Z
2023-12-09T11:48:38Z,42.805,6.029,13.3051,4.60149,2470.763,2023-12-09T13:51:07Z
2023-12-09T11:51:41Z,42.805,6.029,13.3048,4.60137,2470.787,2023-12-09T13:54:10Z
2023-12-09T11:54:44Z,42.805,6.029,13.3055,4.60141,2470.763,2023-12-09T13:57:13Z
2023-12-09T11:57:47Z,42.805,6.029,13.3053,4.60141,2470.74,2023-12-09T14:00:16Z
2023-12-09T12:00:50Z,42.805,6.029,13.3048,4.60144,2470.754,2023-12-09T14:03:19Z
2023-12-09T12:03:53Z,42.805,6.029,13.3054,4.60151,2470.777,2023-12-09T14:06:22Z
2023-12-09T12:06:56Z,42.805,6.029,13.3048,4.60147,2470.777,2023-12-09T14:09:25Z
2023-12-09T12:09:59Z,42.805,6.029,13.3047,4.60141,2470.74,2023-12-09T14:12:28Z
2023-12-09T12:13:02Z,42.805,6.029,13.3056,4.60155,2470.763,2023-12-09T14:15:31Z
2023-12-09T12:16:05Z,42.805,6.029,13.3046,4.60141,2470.763,2023-12-09T14:18:35Z
2023-12-09T12:19:08Z,42.805,6.029,13.3052,4.60142,2470.763,2023-12-09T14:21:38Z
2023-12-09T12:22:11Z,42.805,6.029,13.3043,4.60132,2470.787,2023-12-09T14:24:41Z
2023-12-09T12:25:15Z,42.805,6.029,13.3051,4.60133,2470.763,2023-12-09T14:27:44Z
2023-12-09T12:28:18Z,42.805,6.029,13.3049,4.60149,2470.847,2023-12-09T14:30:47Z
2023-12-09T12:31:21Z,42.805,6.029,13.3050,4.60136,2470.773,2023-12-09T14:33:50Z
2023-12-09T12:34:24Z,42.805,6.029,13.3051,4.60153,2470.763,2023-12-09T14:36:53Z
2023-12-09T12:37:27Z,42.805,6.029,13.3046,4.60134,2470.763,2023-12-09T14:39:56Z
2023-12-09T12:40:30Z,42.805,6.029,13.3046,4.60132,2470.763,2023-12-09T14:42:59Z
2023-12-09T12:43:33Z,42.805,6.029,13.3047,4.60149,2470.8,2023-12-09T14:46:02Z
2023-12-09T12:46:36Z,42.805,6.029,13.3048,4.60140,2470.81,2023-12-09T14:49:05Z
2023-12-09T12:49:39Z,42.805,6.029,13.3051,4.60140,2470.787,2023-12-09T14:52:08Z
2023-12-09T12:52:42Z,42.805,6.029,13.3043,4.60135,2470.787,2023-12-09T14:55:12Z
2023-12-09T12:55:45Z,42.805,6.029,13.3053,4.60142,2470.787,2023-12-09T14:58:15Z
2023-12-09T12:58:48Z,42.805,6.029,13.3055,4.60140,2470.787,2023-12-09T15:01:18Z
2023-12-09T13:01:52Z,42.805,6.029,13.3056,4.60151,2470.8,2023-12-09T15:04:21Z
2023-12-09T13:04:55Z,42.805,6.029,13.3049,4.60158,2470.8,2023-12-09T15:07:24Z
2023-12-09T13:07:58Z,42.805,6.029,13.3056,4.60167,2470.824,2023-12-09T15:10:27Z
2023-12-09T13:11:01Z,42.805,6.029,13.3051,4.60148,2470.8,2023-12-09T15:13:30Z
2023-12-09T13:14:04Z,42.805,6.029,13.3053,4.60151,2470.787,2023-12-09T15:16:33Z
2023-12-09T13:17:07Z,42.805,6.029,13.3057,4.60142,2470.833,2023-12-09T15:19:36Z
2023-12-09T13:20:10Z,42.805,6.029,13.3050,4.60160,2470.763,2023-12-09T15:22:39Z
2023-12-09T13:23:13Z,42.805,6.029,13.3054,4.60167,2470.787,2023-12-09T15:25:42Z
2023-12-09T13:26:16Z,42.805,6.029,13.3054,4.60162,2470.81,2023-12-09T15:28:45Z
2023-12-09T13:29:19Z,42.805,6.029,13.3054,4.60145,2470.8,2023-12-09T15:31:49Z
2023-12-09T13:32:23Z,42.805,6.029,13.3053,4.60144,2470.81,2023-12-09T15:34:52Z
2023-12-09T13:35:26Z,42.805,6.029,13.3054,4.60167,2470.787,2023-12-09T15:37:55Z
2023-12-09T13:38:29Z,42.805,6.029,13.3051,4.60146,2470.81,2023-12-09T15:40:58Z
2023-12-09T13:41:32Z,42.805,6.029,13.3051,4.60142,2470.8,2023-12-09T15:44:01Z
2023-12-09T13:44:35Z,42.805,6.029,13.3052,4.60140,2470.824,2023-12-09T15:47:04Z
2023-12-09T13:47:38Z,42.805,6.029,13.3052,4.60145,2470.81,2023-12-09T15:50:07Z
2023-12-09T13:50:41Z,42.805,6.029,13.3049,4.60142,2470.833,2023-12-09T15:53:10Z
2023-12-09T13:53:44Z,42.805,6.029,13.3045,4.60167,2470.763,2023-12-09T15:56:13Z
2023-12-09T13:56:47Z,42.805,6.029,13.3054,4.60166,2470.81,2023-12-09T15:59:16Z
2023-12-09T13:59:50Z,42.805,6.029,13.3060,4.60174,2470.81,2023-12-09T16:02:20Z
2023-12-09T14:02:53Z,42.805,6.029,13.3046,4.60150,2470.81,2023-12-09T16:05:23Z
2023-12-09T14:05:56Z,42.805,6.029,13.3059,4.60135,2470.833,2023-12-09T16:08:26Z
2023-12-09T14:08:59Z,42.805,6.029,13.3050,4.60160,2470.82,2023-12-09T16:11:29Z
2023-12-09T14:12:03Z,42.805,6.029,13.3054,4.60155,2470.847,2023-12-09T16:14:32Z
2023-12-09T14:15:06Z,42.805,6.029,13.3057,4.60168,2470.833,2023-12-09T16:17:35Z
2023-12-09T14:18:09Z,42.805,6.029,13.3049,4.60150,2470.833,2023-12-09T16:20:38Z
2023-12-09T14:21:12Z,42.805,6.029,13.3047,4.60138,2470.857,2023-12-09T16:23:41Z
2023-12-09T14:24:15Z,42.805,6.029,13.3049,4.60140,2470.857,2023-12-09T16:26:44Z
2023-12-09T14:27:18Z,42.805,6.029,13.3046,4.60143,2470.787,2023-12-09T16:29:47Z
2023-12-09T14:30:21Z,42.805,6.029,13.3048,4.60147,2470.81,2023-12-09T16:32:50Z
2023-12-09T14:33:24Z,42.805,6.029,13.3059,4.60150,2470.857,2023-12-09T16:35:53Z
2023-12-09T14:36:27Z,42.805,6.029,13.3054,4.60140,2470.833,2023-12-09T16:38:56Z
2023-12-09T14:39:30Z,42.805,6.029,13.3061,4.60154,2470.847,2023-12-09T16:42:00Z
2023-12-09T14:42:33Z,42.805,6.029,13.3048,4.60155,2470.81,2023-12-09T16:45:03Z
2023-12-09T14:45:36Z,42.805,6.029,13.3058,4.60140,2470.847,2023-12-09T16:48:06Z
2023-12-09T14:48:40Z,42.805,6.029,13.3056,4.60152,2470.871,2023-12-09T16:51:09Z
2023-12-09T14:51:43Z,42.805,6.029,13.3051,4.60157,2470.871,2023-12-09T16:54:12Z
2023-12-09T14:54:46Z,42.805,6.029,13.3049,4.60135,2470.857,2023-12-09T16:57:15Z
2023-12-09T14:57:49Z,42.805,6.029,13.3059,4.60143,2470.88,2023-12-09T17:00:18Z
2023-12-09T15:00:52Z,42.805,6.029,13.3048,4.60140,2470.847,2023-12-09T17:03:21Z